When you browse on this site, cookies collect data to enhance your experience and personalize the content and advertising you see.
Visit our Privacy Policy to learn more. By continuing to use the site, you agree to this use of cookies and data.
EN

Hourly Weather Ahtopol

Today, 9 July, Thursday

Time Temperature Precipitation Wind Pressure Humidity
00:00 +19°C° 0 mm 1 mps 761 mmHg 76%
01:00 +19°C° 0 mm 1 mps 761 mmHg 77%
02:00 +18°C° 0 mm 1 mps 762 mmHg 78%
03:00 +18°C° 0 mm 1 mps 762 mmHg 79%
04:00 +18°C° 0 mm 1 mps 762 mmHg 79%
05:00 +18°C° 0 mm 1 mps 761 mmHg 80%
06:00 +20°C° 0 mm 1 mps 762 mmHg 72%
07:00 +21°C° 0 mm 2 mps 762 mmHg 65%
08:00 +24°C° 0 mm 2 mps 762 mmHg 58%
09:00 +25°C° 0 mm 3 mps 762 mmHg 54%
10:00 +26°C° 0 mm 3 mps 762 mmHg 49%
11:00 +27°C° 0 mm 4 mps 762 mmHg 45%
12:00 +28°C° 0 mm 4 mps 762 mmHg 44%
13:00 +28°C° 0 mm 5 mps 762 mmHg 44%
14:00 +28°C° 0 mm 5 mps 762 mmHg 43%
15:00 +28°C° 0 mm 5 mps 761 mmHg 46%
16:00 +27°C° 0 mm 5 mps 761 mmHg 48%
17:00 +27°C° 0 mm 5 mps 761 mmHg 51%
18:00 +25°C° 0 mm 4 mps 761 mmHg 59%
19:00 +22°C° 0 mm 3 mps 761 mmHg 67%
20:00 +20°C° 0 mm 2 mps 762 mmHg 76%
21:00 +20°C° 0 mm 2 mps 762 mmHg 78%
22:00 +19°C° 0 mm 2 mps 762 mmHg 80%
23:00 +20°C° 0 mm 1 mps 762 mmHg 82%

Tomorrow, 10 July, Friday

Time Temperature Precipitation Wind Pressure Humidity
00:00 +20°C° 0 mm 1 mps 762 mmHg 82%
01:00 +19°C° 0 mm 1 mps 762 mmHg 82%
02:00 +19°C° 0 mm 1 mps 761 mmHg 83%
03:00 +18°C° 0 mm 2 mps 761 mmHg 83%
04:00 +18°C° 0 mm 2 mps 761 mmHg 83%
05:00 +18°C° 0 mm 2 mps 761 mmHg 84%
06:00 +20°C° 0 mm 3 mps 762 mmHg 77%
07:00 +22°C° 0 mm 4 mps 762 mmHg 70%
08:00 +25°C° 0 mm 5 mps 762 mmHg 64%
09:00 +26°C° 0 mm 5 mps 762 mmHg 59%
10:00 +27°C° 0 mm 5 mps 762 mmHg 55%
11:00 +28°C° 0 mm 6 mps 762 mmHg 51%
12:00 +28°C° 0 mm 6 mps 762 mmHg 50%
13:00 +29°C° 0 mm 6 mps 761 mmHg 49%
14:00 +29°C° 0 mm 6 mps 761 mmHg 48%
15:00 +29°C° 0 mm 6 mps 761 mmHg 51%
16:00 +28°C° 0 mm 6 mps 761 mmHg 53%
17:00 +28°C° 0 mm 6 mps 761 mmHg 55%
18:00 +26°C° 0 mm 5 mps 761 mmHg 63%
19:00 +23°C° 0 mm 5 mps 761 mmHg 71%
20:00 +22°C° 0 mm 4 mps 761 mmHg 78%
21:00 +21°C° 0 mm 4 mps 761 mmHg 81%
22:00 +21°C° 0 mm 4 mps 761 mmHg 83%
23:00 +20°C° 0 mm 4 mps 761 mmHg 85%

Day after tomorrow, 11 July, Saturday

Time Temperature Precipitation Wind Pressure Humidity
00:00 +20°C° 0 mm 3 mps 761 mmHg 86%
01:00 +20°C° 0 mm 3 mps 761 mmHg 88%
02:00 +19°C° 0 mm 3 mps 760 mmHg 89%
03:00 +19°C° 0 mm 3 mps 760 mmHg 89%
04:00 +19°C° 0 mm 3 mps 760 mmHg 90%
05:00 +19°C° 0 mm 3 mps 760 mmHg 90%
06:00 +21°C° 0 mm 3 mps 760 mmHg 83%
07:00 +23°C° 0 mm 4 mps 760 mmHg 77%
08:00 +26°C° 0 mm 4 mps 760 mmHg 70%
09:00 +27°C° 0.1 mm 4 mps 760 mmHg 65%
10:00 +28°C° 0.1 mm 5 mps 760 mmHg 60%
11:00 +29°C° 0.1 mm 5 mps 760 mmHg 55%
12:00 +29°C° 0 mm 6 mps 759 mmHg 54%
13:00 +30°C° 0 mm 6 mps 759 mmHg 52%
14:00 +30°C° 0 mm 6 mps 759 mmHg 51%
15:00 +29°C° 0 mm 6 mps 759 mmHg 53%
16:00 +29°C° 0 mm 6 mps 759 mmHg 55%
17:00 +28°C° 0 mm 5 mps 758 mmHg 57%
18:00 +26°C° 0 mm 5 mps 758 mmHg 65%
19:00 +23°C° 0 mm 4 mps 758 mmHg 73%
20:00 +22°C° 0 mm 3 mps 758 mmHg 81%
21:00 +21°C° 0 mm 3 mps 758 mmHg 83%
22:00 +20°C° 0 mm 2 mps 758 mmHg 86%
23:00 +20°C° 0 mm 2 mps 758 mmHg 89%

12 July, Sunday

Time Temperature Precipitation Wind Pressure Humidity
00:00 +19°C° 0 mm 2 mps 758 mmHg 89%
01:00 +20°C° 0 mm 1 mps 758 mmHg 90%
02:00 +20°C° 0 mm 1 mps 758 mmHg 90%
03:00 +20°C° 0 mm 1 mps 757 mmHg 91%
04:00 +19°C° 0 mm 1 mps 757 mmHg 91%
05:00 +19°C° 0 mm 1 mps 757 mmHg 91%
06:00 +21°C° 0 mm 1 mps 757 mmHg 84%
07:00 +23°C° 0 mm 2 mps 758 mmHg 77%
08:00 +25°C° 0 mm 2 mps 758 mmHg 70%
09:00 +26°C° 0 mm 2 mps 758 mmHg 63%
10:00 +28°C° 0 mm 2 mps 758 mmHg 55%
11:00 +29°C° 0 mm 2 mps 758 mmHg 47%
12:00 +30°C° 0 mm 3 mps 758 mmHg 44%
13:00 +31°C° 0 mm 3 mps 757 mmHg 41%
14:00 +33°C° 0 mm 3 mps 757 mmHg 39%
15:00 +31°C° 0 mm 3 mps 757 mmHg 41%
16:00 +31°C° 0 mm 3 mps 757 mmHg 43%
17:00 +30°C° 0 mm 3 mps 757 mmHg 45%
18:00 +28°C° 0 mm 2 mps 757 mmHg 53%
19:00 +26°C° 0 mm 1 mps 757 mmHg 61%
20:00 +24°C° 0 mm 1 mps 757 mmHg 69%
21:00 +23°C° 0 mm 1 mps 757 mmHg 69%
22:00 +23°C° 0 mm 1 mps 757 mmHg 70%
23:00 +23°C° 0 mm 1 mps 757 mmHg 70%

13 July, Monday

Time Temperature Precipitation Wind Pressure Humidity
00:00 +21°C° 0 mm 2 mps 757 mmHg 71%
01:00 +21°C° 0 mm 4 mps 757 mmHg 73%
02:00 +21°C° 0 mm 5 mps 757 mmHg 75%
03:00 +20°C° 0 mm 5 mps 757 mmHg 74%
04:00 +20°C° 0 mm 5 mps 757 mmHg 74%
05:00 +19°C° 0 mm 6 mps 757 mmHg 73%
06:00 +20°C° 0 mm 6 mps 758 mmHg 71%
07:00 +21°C° 0 mm 6 mps 758 mmHg 69%
08:00 +21°C° 0 mm 6 mps 758 mmHg 67%
09:00 +22°C° 0 mm 6 mps 758 mmHg 64%
10:00 +23°C° 0 mm 6 mps 759 mmHg 61%
11:00 +24°C° 0 mm 6 mps 759 mmHg 59%
12:00 +24°C° 0 mm 6 mps 759 mmHg 57%
13:00 +26°C° 0 mm 6 mps 759 mmHg 56%
14:00 +26°C° 0 mm 6 mps 759 mmHg 55%
15:00 +26°C° 0 mm 6 mps 759 mmHg 55%
16:00 +24°C° 0 mm 6 mps 759 mmHg 55%
17:00 +24°C° 0 mm 6 mps 759 mmHg 56%
18:00 +23°C° 0 mm 6 mps 759 mmHg 58%
19:00 +21°C° 0 mm 5 mps 759 mmHg 60%
20:00 +20°C° 0 mm 5 mps 759 mmHg 62%
21:00 +19°C° 0 mm 4 mps 759 mmHg 67%
22:00 +18°C° 0 mm 4 mps 759 mmHg 71%
23:00 +17°C° 0 mm 3 mps 760 mmHg 75%

14 July, Tuesday

Time Temperature Precipitation Wind Pressure Humidity
00:00 +17°C° 0 mm 3 mps 760 mmHg 76%
01:00 +17°C° 0 mm 3 mps 760 mmHg 76%
02:00 +17°C° 0 mm 3 mps 760 mmHg 77%
03:00 +17°C° 0 mm 3 mps 760 mmHg 78%
04:00 +16°C° 0 mm 3 mps 760 mmHg 79%
05:00 +16°C° 0 mm 3 mps 760 mmHg 81%
06:00 +18°C° 0 mm 3 mps 760 mmHg 74%
07:00 +20°C° 0 mm 4 mps 760 mmHg 67%
08:00 +22°C° 0 mm 4 mps 760 mmHg 59%
09:00 +23°C° 0 mm 4 mps 760 mmHg 55%
10:00 +26°C° 0 mm 5 mps 760 mmHg 50%
11:00 +27°C° 0 mm 5 mps 760 mmHg 45%
12:00 +27°C° 0 mm 6 mps 760 mmHg 44%
13:00 +28°C° 0 mm 6 mps 760 mmHg 44%
14:00 +28°C° 0 mm 6 mps 760 mmHg 43%
15:00 +27°C° 0 mm 6 mps 760 mmHg 45%
16:00 +27°C° 0 mm 6 mps 760 mmHg 48%
17:00 +26°C° 0 mm 5 mps 760 mmHg 50%
18:00 +23°C° 0 mm 5 mps 760 mmHg 59%
19:00 +22°C° 0 mm 4 mps 760 mmHg 67%
20:00 +20°C° 0 mm 3 mps 760 mmHg 75%
21:00 +19°C° 0 mm 2 mps 760 mmHg 77%
22:00 +18°C° 0 mm 2 mps 761 mmHg 80%
23:00 +19°C° 0 mm 1 mps 761 mmHg 82%
Show more